カタリナ彗星

346P/Catalina (2017)

English version
Home page
Updated on August 28, 2018

---------------------------------------------------------------------

・ プロフィール

符号 346P/2016 R1
検出日 2016年9月1日
検出光度 20.0等
検出者 K. Sarneczky and P. Szekely (Piszkesteto Station of Konkoly Observatory)

・ 写真集

・ 軌道要素

Epoch 2017 Feb. 16.0 TT = JDT 2457800.5
T 2017 Feb. 15.51681 TT                                 MPCW
q   2.2208720            (2000.0)            P               Q
n   0.10407757     Peri.  335.90315     +0.17126944     -0.91367674
a   4.4760811      Node   102.51479     +0.95411075     +0.06053791
e   0.5038356      Incl.   22.18293     +0.24564092     +0.40190793
P   9.47
From 461 observations 2007 Oct. 6-2018 Apr. 9, mean residual 0".6.

・ 星図

・ 光度変化

        m1 = 9.5 + 5 logΔ + 18.0 log r(t - 100)

---------------------------------------------------------------------

軌道要素はM.P.E.C. 2018-H105に掲載されたものです。
星図はステラナビゲータ Ver.8 (アストロアーツ) で作成したものです。
光度グラフはComet for Windowsで作成したものです。

---------------------------------------------------------------------

Copyright(C) Seiichi Yoshida (comet@aerith.net). All rights reserved.